Time,TemperatureF,DewpointF,PressureIn,WindDirection,WindDirectionDegrees,WindSpeedMPH,WindSpeedGustMPH,Humidity,HourlyPrecipIn,Conditions,Clouds,dailyrainin,SoftwareType,DateUTC
2013-06-15 00:00:00,64.6,62.5,30.00,ESE,117,0.0,1.0,93,0.12,,---,0.01,VWS V14.01,2013-06-15 05:00:00,
2013-06-15 00:05:00,64.3,62.2,30.00,SSE,149,1.0,3.0,93,0.15,,---,0.04,VWS V14.01,2013-06-15 05:05:00,
2013-06-15 00:10:00,64.2,62.4,30.00,SSE,158,1.0,3.0,94,0.16,,---,0.05,VWS V14.01,2013-06-15 05:10:00,
2013-06-15 00:15:00,64.2,62.4,30.00,West,277,2.0,5.0,94,0.17,,---,0.06,VWS V14.01,2013-06-15 05:15:00,
2013-06-15 00:20:00,64.3,62.5,30.00,West,266,1.0,7.0,94,0.18,,---,0.07,VWS V14.01,2013-06-15 05:20:00,
2013-06-15 00:25:00,64.4,62.6,30.02,SE,131,1.0,7.0,94,0.18,,---,0.07,VWS V14.01,2013-06-15 05:25:00,
2013-06-15 00:30:00,64.5,62.7,30.03,East,91,2.0,8.0,94,0.15,,---,0.08,VWS V14.01,2013-06-15 05:30:00,
2013-06-15 00:35:00,64.4,62.9,30.03,SSE,152,1.0,8.0,95,0.15,,---,0.08,VWS V14.01,2013-06-15 05:35:00,
2013-06-15 00:41:00,64.3,62.8,30.03,West,263,0.0,8.0,95,0.15,,---,0.08,VWS V14.01,2013-06-15 05:41:00,
2013-06-15 00:46:00,64.3,62.8,30.03,SW,229,0.0,8.0,95,0.15,,---,0.08,VWS V14.01,2013-06-15 05:46:00,
2013-06-15 00:51:00,64.3,62.8,30.04,SSW,210,2.0,8.0,95,0.16,,---,0.09,VWS V14.01,2013-06-15 05:51:00,
2013-06-15 00:56:00,64.2,62.7,30.05,SSW,210,1.0,8.0,95,0.17,,---,0.10,VWS V14.01,2013-06-15 05:56:00,
2013-06-15 01:00:00,64.2,62.7,30.04,SSW,195,1.0,8.0,95,0.17,,---,0.10,VWS V14.01,2013-06-15 06:00:00,
2013-06-15 01:01:00,64.2,62.7,30.04,SW,231,0.0,3.0,95,0.10,,---,0.10,VWS V14.01,2013-06-15 06:01:00,
2013-06-15 01:06:00,64.2,62.7,30.03,SW,215,1.0,3.0,95,0.12,,---,0.12,VWS V14.01,2013-06-15 06:06:00,
2013-06-15 01:11:00,64.2,62.7,30.02,SW,224,0.0,3.0,95,0.13,,---,0.13,VWS V14.01,2013-06-15 06:11:00,
2013-06-15 01:16:00,64.1,62.6,29.99,ENE,71,2.0,3.0,95,0.15,,---,0.15,VWS V14.01,2013-06-15 06:16:00,
2013-06-15 01:21:00,64.2,62.7,29.92,East,84,6.0,13.0,95,0.17,,---,0.17,VWS V14.01,2013-06-15 06:21:00,
2013-06-15 01:26:00,64.1,62.6,29.87,ESE,105,10.0,15.0,95,0.19,,---,0.19,VWS V14.01,2013-06-15 06:26:00,
2013-06-15 01:30:00,64.2,62.7,29.85,ENE,57,6.0,15.0,95,0.19,,---,0.19,VWS V14.01,2013-06-15 06:30:00,
2013-06-15 01:31:00,64.3,62.8,29.85,East,91,7.0,13.0,95,0.11,,---,0.19,VWS V14.01,2013-06-15 06:31:00,
2013-06-15 01:36:00,65.0,63.5,29.86,SSW,198,3.0,13.0,95,0.11,,---,0.19,VWS V14.01,2013-06-15 06:36:00,
2013-06-15 01:42:00,66.0,63.6,29.87,West,262,2.0,13.0,92,0.12,,---,0.20,VWS V14.01,2013-06-15 06:42:00,
2013-06-15 01:47:00,66.1,63.4,29.90,WNW,284,1.0,13.0,91,0.12,,---,0.20,VWS V14.01,2013-06-15 06:47:00,
2013-06-15 01:52:00,65.9,63.5,29.93,SE,136,2.0,13.0,92,0.12,,---,0.20,VWS V14.01,2013-06-15 06:52:00,
2013-06-15 01:57:00,66.3,63.6,29.92,NE,56,0.0,13.0,91,0.13,,---,0.21,VWS V14.01,2013-06-15 06:57:00,
2013-06-15 02:00:00,66.4,63.7,29.94,SW,233,2.0,13.0,91,0.13,,---,0.21,VWS V14.01,2013-06-15 07:00:00,
2013-06-15 02:02:00,66.2,63.8,29.94,SW,230,0.0,2.0,92,0.12,,---,0.22,VWS V14.01,2013-06-15 07:02:00,
2013-06-15 02:07:00,65.6,63.5,29.94,ESE,113,2.0,3.0,93,0.12,,---,0.22,VWS V14.01,2013-06-15 07:07:00,
2013-06-15 02:12:00,65.4,63.3,29.94,East,96,4.0,6.0,93,0.13,,---,0.23,VWS V14.01,2013-06-15 07:12:00,
2013-06-15 02:17:00,65.7,63.6,29.93,ESE,103,0.0,9.0,93,0.13,,---,0.23,VWS V14.01,2013-06-15 07:17:00,
2013-06-15 02:22:00,65.6,63.5,29.94,NW,308,0.0,9.0,93,0.13,,---,0.23,VWS V14.01,2013-06-15 07:22:00,
2013-06-15 02:27:00,65.6,63.5,29.94,WSW,240,1.0,9.0,93,0.13,,---,0.23,VWS V14.01,2013-06-15 07:27:00,
2013-06-15 02:30:00,65.5,63.4,29.94,SW,228,5.0,9.0,93,0.13,,---,0.23,VWS V14.01,2013-06-15 07:30:00,
2013-06-15 02:32:00,65.4,63.6,29.93,East,80,2.0,5.0,94,0.04,,---,0.23,VWS V14.01,2013-06-15 07:32:00,
2013-06-15 02:38:00,65.3,63.5,29.91,NNE,26,1.0,9.0,94,0.04,,---,0.23,VWS V14.01,2013-06-15 07:38:00,
2013-06-15 02:43:00,65.1,63.3,29.89,ENE,58,2.0,9.0,94,0.04,,---,0.23,VWS V14.01,2013-06-15 07:43:00,
2013-06-15 02:48:00,65.0,63.5,29.88,East,98,1.0,9.0,95,0.04,,---,0.23,VWS V14.01,2013-06-15 07:48:00,
2013-06-15 02:53:00,65.0,63.5,29.89,SW,224,2.0,9.0,95,0.04,,---,0.23,VWS V14.01,2013-06-15 07:53:00,
2013-06-15 02:58:00,65.0,63.5,29.89,East,87,8.0,9.0,95,0.04,,---,0.23,VWS V14.01,2013-06-15 07:58:00,
2013-06-15 03:00:00,64.9,63.4,29.90,WSW,252,1.0,9.0,95,0.04,,---,0.23,VWS V14.01,2013-06-15 08:00:00,
2013-06-15 03:03:00,64.9,63.4,29.91,SW,214,3.0,5.0,95,0.02,,---,0.23,VWS V14.01,2013-06-15 08:03:00,
2013-06-15 03:08:00,64.9,63.4,29.91,WSW,245,0.0,5.0,95,0.02,,---,0.23,VWS V14.01,2013-06-15 08:08:00,
2013-06-15 03:13:00,64.8,63.3,29.91,South,183,0.0,5.0,95,0.02,,---,0.23,VWS V14.01,2013-06-15 08:13:00,
2013-06-15 03:18:00,64.7,63.2,29.90,SE,142,1.0,6.0,95,0.02,,---,0.23,VWS V14.01,2013-06-15 08:18:00,
2013-06-15 03:23:00,64.7,63.5,29.90,SSE,158,3.0,6.0,96,0.02,,---,0.23,VWS V14.01,2013-06-15 08:23:00,
2013-06-15 03:28:00,64.7,63.5,29.91,NE,46,1.0,6.0,96,0.02,,---,0.23,VWS V14.01,2013-06-15 08:28:00,
2013-06-15 03:30:00,64.7,63.5,29.91,NE,46,0.0,6.0,96,0.02,,---,0.23,VWS V14.01,2013-06-15 08:30:00,
2013-06-15 03:34:00,64.6,63.4,29.91,SSE,153,2.0,2.0,96,0.00,,---,0.23,VWS V14.01,2013-06-15 08:34:00,
2013-06-15 03:39:00,64.6,63.4,29.91,East,89,0.0,5.0,96,0.00,,---,0.23,VWS V14.01,2013-06-15 08:39:00,
2013-06-15 03:44:00,64.6,63.4,29.91,East,80,1.0,5.0,96,0.00,,---,0.23,VWS V14.01,2013-06-15 08:44:00,
2013-06-15 03:49:00,64.6,63.4,29.92,East,82,0.0,5.0,96,0.00,,---,0.23,VWS V14.01,2013-06-15 08:49:00,
2013-06-15 03:54:00,64.5,63.3,29.91,SSW,212,0.0,5.0,96,0.00,,---,0.23,VWS V14.01,2013-06-15 08:54:00,
2013-06-15 03:59:00,64.4,63.2,29.91,ESE,116,0.0,0.0,96,0.00,,---,0.23,VWS V14.01,2013-06-15 08:59:00,
2013-06-15 04:00:00,64.3,63.1,29.91,ESE,116,0.0,5.0,96,0.00,,---,0.23,VWS V14.01,2013-06-15 09:00:00,
2013-06-15 04:04:00,64.3,63.4,29.91,East,86,0.0,2.0,97,0.00,,---,0.23,VWS V14.01,2013-06-15 09:04:00,
2013-06-15 04:09:00,64.3,63.4,29.90,East,84,2.0,2.0,97,0.00,,---,0.23,VWS V14.01,2013-06-15 09:09:00,
2013-06-15 04:14:00,64.2,63.3,29.90,SW,219,0.0,4.0,97,0.00,,---,0.23,VWS V14.01,2013-06-15 09:14:00,
2013-06-15 04:19:00,64.1,63.2,29.90,ESE,123,0.0,4.0,97,0.00,,---,0.23,VWS V14.01,2013-06-15 09:19:00,
2013-06-15 04:25:00,64.1,63.2,29.90,SE,135,0.0,4.0,97,0.00,,---,0.23,VWS V14.01,2013-06-15 09:25:00,
2013-06-15 04:30:00,64.1,63.2,29.90,East,98,1.0,2.0,97,0.00,,---,0.23,VWS V14.01,2013-06-15 09:30:00,
2013-06-15 04:35:00,64.1,63.2,29.89,SE,136,1.0,6.0,97,0.00,,---,0.23,VWS V14.01,2013-06-15 09:35:00,
2013-06-15 04:40:00,64.1,63.2,29.89,SSE,162,2.0,6.0,97,0.00,,---,0.23,VWS V14.01,2013-06-15 09:40:00,
2013-06-15 04:45:00,64.1,63.2,29.89,East,95,1.0,6.0,97,0.00,,---,0.23,VWS V14.01,2013-06-15 09:45:00,
2013-06-15 04:50:00,64.1,63.2,29.89,NE,46,1.0,6.0,97,0.00,,---,0.23,VWS V14.01,2013-06-15 09:50:00,
2013-06-15 04:55:00,64.0,63.1,29.88,ENE,65,1.0,6.0,97,0.00,,---,0.23,VWS V14.01,2013-06-15 09:55:00,
2013-06-15 05:00:00,64.0,63.1,29.89,ESE,117,1.0,1.0,97,0.00,,---,0.23,VWS V14.01,2013-06-15 10:00:00,
2013-06-15 05:05:00,63.9,63.0,29.89,ESE,117,0.0,1.0,97,0.00,,---,0.23,VWS V14.01,2013-06-15 10:05:00,
2013-06-15 05:10:00,63.8,62.9,29.89,ESE,117,0.0,1.0,97,0.00,,---,0.23,VWS V14.01,2013-06-15 10:10:00,
2013-06-15 05:15:00,63.8,62.9,29.89,ESE,117,0.0,1.0,97,0.00,,---,0.23,VWS V14.01,2013-06-15 10:15:00,
2013-06-15 05:20:00,63.7,63.1,29.89,ESE,117,0.0,1.0,98,0.00,,---,0.23,VWS V14.01,2013-06-15 10:20:00,
2013-06-15 05:26:00,63.7,63.1,29.90,ENE,75,0.0,1.0,98,0.00,,---,0.23,VWS V14.01,2013-06-15 10:26:00,
2013-06-15 05:30:00,63.8,63.2,29.90,ENE,75,0.0,1.0,98,0.00,,---,0.23,VWS V14.01,2013-06-15 10:30:00,
2013-06-15 05:31:00,63.7,63.1,29.90,ENE,75,0.0,0.0,98,0.00,,---,0.23,VWS V14.01,2013-06-15 10:31:00,
2013-06-15 05:36:00,63.7,63.1,29.90,ENE,75,0.0,0.0,98,0.00,,---,0.23,VWS V14.01,2013-06-15 10:36:00,
2013-06-15 05:41:00,63.5,62.9,29.91,ENE,76,0.0,0.0,98,0.00,,---,0.23,VWS V14.01,2013-06-15 10:41:00,
2013-06-15 05:46:00,63.4,62.8,29.90,ENE,75,0.0,0.0,98,0.00,,---,0.23,VWS V14.01,2013-06-15 10:46:00,
2013-06-15 05:51:00,63.4,62.8,29.91,East,79,0.0,0.0,98,0.00,,---,0.23,VWS V14.01,2013-06-15 10:51:00,
2013-06-15 05:56:00,63.3,62.7,29.91,East,79,0.0,0.0,98,0.00,,---,0.23,VWS V14.01,2013-06-15 10:56:00,
2013-06-15 06:00:00,63.3,62.7,29.91,East,79,0.0,0.0,98,0.00,,---,0.23,VWS V14.01,2013-06-15 11:00:00,
2013-06-15 06:01:00,63.3,62.7,29.91,East,79,0.0,0.0,98,0.00,,---,0.23,VWS V14.01,2013-06-15 11:01:00,
2013-06-15 06:07:00,63.4,62.8,29.91,East,79,0.0,0.0,98,0.00,,---,0.23,VWS V14.01,2013-06-15 11:07:00,
2013-06-15 06:12:00,63.4,62.8,29.91,East,79,0.0,0.0,98,0.00,,---,0.23,VWS V14.01,2013-06-15 11:12:00,
2013-06-15 06:17:00,63.4,62.8,29.92,East,79,0.0,0.0,98,0.00,,---,0.23,VWS V14.01,2013-06-15 11:17:00,
2013-06-15 06:29:00,63.4,62.8,29.92,ESE,120,0.0,0.0,98,0.00,,---,0.23,VWS V14.01,2013-06-15 11:29:00,
2013-06-15 06:30:00,63.4,62.8,29.92,ESE,120,0.0,0.0,98,0.00,,---,0.23,VWS V14.01,2013-06-15 11:30:00,
2013-06-15 06:34:00,63.4,62.8,29.92,ESE,123,0.0,0.0,98,0.00,,---,0.23,VWS V14.01,2013-06-15 11:34:00,
2013-06-15 06:39:00,63.5,62.9,29.92,ESE,123,0.0,0.0,98,0.00,,---,0.23,VWS V14.01,2013-06-15 11:39:00,
2013-06-15 06:44:00,63.6,63.0,29.92,ESE,113,0.0,1.0,98,0.00,,---,0.23,VWS V14.01,2013-06-15 11:44:00,
2013-06-15 06:49:00,63.8,63.2,29.92,ENE,73,2.0,2.0,98,0.00,,---,0.23,VWS V14.01,2013-06-15 11:49:00,
2013-06-15 06:54:00,64.1,63.5,29.92,East,86,1.0,3.0,98,0.00,,---,0.23,VWS V14.01,2013-06-15 11:54:00,
2013-06-15 06:59:00,64.3,63.7,29.93,ESE,114,1.0,2.0,98,0.00,,---,0.23,VWS V14.01,2013-06-15 11:59:00,
2013-06-15 07:00:00,64.3,63.7,29.92,ESE,117,1.0,3.0,98,0.00,,---,0.23,VWS V14.01,2013-06-15 12:00:00,
2013-06-15 07:04:00,64.5,63.9,29.93,ESE,110,2.0,3.0,98,0.00,,---,0.23,VWS V14.01,2013-06-15 12:04:00,
2013-06-15 07:09:00,64.7,64.1,29.92,ESE,106,2.0,3.0,98,0.00,,---,0.23,VWS V14.01,2013-06-15 12:09:00,
2013-06-15 07:15:00,64.9,64.3,29.93,ENE,73,2.0,4.0,98,0.00,,---,0.23,VWS V14.01,2013-06-15 12:15:00,
2013-06-15 07:20:00,65.1,64.5,29.93,ESE,119,0.0,4.0,98,0.00,,---,0.23,VWS V14.01,2013-06-15 12:20:00,
2013-06-15 07:25:00,65.5,64.9,29.93,SE,129,2.0,5.0,98,0.00,,---,0.23,VWS V14.01,2013-06-15 12:25:00,
2013-06-15 07:30:00,65.8,65.2,29.93,SE,130,0.0,2.0,98,0.00,,---,0.23,VWS V14.01,2013-06-15 12:30:00,
2013-06-15 07:35:00,66.2,65.6,29.93,ENE,77,0.0,4.0,98,0.00,,---,0.23,VWS V14.01,2013-06-15 12:35:00,
2013-06-15 07:40:00,66.7,65.8,29.93,SSE,160,1.0,4.0,97,0.00,,---,0.23,VWS V14.01,2013-06-15 12:40:00,
2013-06-15 07:45:00,66.9,65.7,29.93,SSE,163,2.0,5.0,96,0.00,,---,0.23,VWS V14.01,2013-06-15 12:45:00,
2013-06-15 07:50:00,67.2,66.0,29.93,SSW,201,0.0,6.0,96,0.00,,---,0.23,VWS V14.01,2013-06-15 12:50:00,
2013-06-15 07:55:00,67.7,66.5,29.93,ESE,114,2.0,6.0,96,0.00,,---,0.23,VWS V14.01,2013-06-15 12:55:00,
2013-06-15 08:00:00,67.6,65.8,29.93,SE,136,3.0,6.0,94,0.00,,---,0.23,VWS V14.01,2013-06-15 13:00:00,
2013-06-15 08:05:00,68.0,66.2,29.94,SE,142,1.0,6.0,94,0.00,,---,0.23,VWS V14.01,2013-06-15 13:05:00,
2013-06-15 08:10:00,68.3,66.2,29.93,SE,129,7.0,7.0,93,0.00,,---,0.23,VWS V14.01,2013-06-15 13:10:00,
2013-06-15 08:15:00,68.5,66.1,29.93,SSE,150,4.0,7.0,92,0.00,,---,0.23,VWS V14.01,2013-06-15 13:15:00,
2013-06-15 08:20:00,68.9,66.5,29.93,SSW,211,1.0,7.0,92,0.00,,---,0.23,VWS V14.01,2013-06-15 13:20:00,
2013-06-15 08:25:00,69.1,66.1,29.93,ESE,113,3.0,7.0,90,0.00,,---,0.23,VWS V14.01,2013-06-15 13:25:00,
2013-06-15 08:30:00,69.2,66.2,29.93,ESE,106,2.0,7.0,90,0.00,,---,0.23,VWS V14.01,2013-06-15 13:30:00,
2013-06-15 08:31:00,69.4,66.3,29.93,East,95,1.0,4.0,90,0.00,,---,0.23,VWS V14.01,2013-06-15 13:31:00,
2013-06-15 08:36:00,70.0,66.6,29.93,SE,125,5.0,7.0,89,0.00,,---,0.23,VWS V14.01,2013-06-15 13:36:00,
2013-06-15 08:41:00,70.2,66.5,29.93,SSE,152,5.0,9.0,88,0.00,,---,0.23,VWS V14.01,2013-06-15 13:41:00,
2013-06-15 08:46:00,70.5,66.8,29.93,SSW,211,4.0,9.0,88,0.00,,---,0.23,VWS V14.01,2013-06-15 13:46:00,
2013-06-15 08:51:00,70.8,67.1,29.92,SSW,193,1.0,9.0,88,0.00,,---,0.23,VWS V14.01,2013-06-15 13:51:00,
2013-06-15 08:56:00,71.1,67.0,29.92,SW,231,3.0,9.0,87,0.00,,---,0.23,VWS V14.01,2013-06-15 13:56:00,
2013-06-15 09:00:00,71.3,67.6,29.92,SE,128,1.0,9.0,88,0.00,,---,0.23,VWS V14.01,2013-06-15 14:00:00,
2013-06-15 09:01:00,71.4,67.3,29.92,SW,224,6.0,7.0,87,0.00,,---,0.23,VWS V14.01,2013-06-15 14:01:00,
2013-06-15 09:06:00,71.5,67.1,29.93,East,100,4.0,12.0,86,0.00,,---,0.23,VWS V14.01,2013-06-15 14:06:00,
2013-06-15 09:11:00,71.9,67.5,29.94,ESE,103,3.0,12.0,86,0.00,,---,0.23,VWS V14.01,2013-06-15 14:11:00,
2013-06-15 09:16:00,71.9,67.2,29.94,SSW,194,1.0,12.0,85,0.00,,---,0.23,VWS V14.01,2013-06-15 14:16:00,
2013-06-15 09:21:00,72.4,67.6,29.95,SSE,148,2.0,12.0,85,0.00,,---,0.23,VWS V14.01,2013-06-15 14:21:00,
2013-06-15 09:26:00,72.2,67.4,29.95,West,267,1.0,12.0,85,0.00,,---,0.23,VWS V14.01,2013-06-15 14:26:00,
2013-06-15 09:30:00,72.0,67.2,29.95,SE,141,2.0,12.0,85,0.00,,---,0.23,VWS V14.01,2013-06-15 14:30:00,
2013-06-15 09:31:00,71.8,67.1,29.95,SSW,212,0.0,6.0,85,0.00,,---,0.23,VWS V14.01,2013-06-15 14:31:00,
2013-06-15 09:36:00,71.2,66.8,29.95,SSW,207,2.0,6.0,86,0.00,,---,0.23,VWS V14.01,2013-06-15 14:36:00,
2013-06-15 09:41:00,70.6,66.6,29.94,SE,125,1.0,8.0,87,0.00,,---,0.23,VWS V14.01,2013-06-15 14:41:00,
2013-06-15 09:46:00,70.3,66.6,29.94,SW,235,4.0,8.0,88,0.00,,---,0.23,VWS V14.01,2013-06-15 14:46:00,
2013-06-15 09:52:00,69.9,66.5,29.94,SE,139,1.0,8.0,89,0.00,,---,0.23,VWS V14.01,2013-06-15 14:52:00,
2013-06-15 09:57:00,69.7,66.3,29.94,SW,229,1.0,8.0,89,0.00,,---,0.23,VWS V14.01,2013-06-15 14:57:00,
2013-06-15 10:00:00,69.6,66.2,29.93,ESE,122,3.0,8.0,89,0.00,,---,0.23,VWS V14.01,2013-06-15 15:00:00,
2013-06-15 10:02:00,69.6,66.2,29.94,ESE,120,4.0,5.0,89,0.00,,---,0.23,VWS V14.01,2013-06-15 15:02:00,
2013-06-15 10:07:00,69.4,66.3,29.94,SSW,196,0.0,5.0,90,0.00,,---,0.23,VWS V14.01,2013-06-15 15:07:00,
2013-06-15 10:12:00,69.3,66.2,29.94,ESE,120,1.0,6.0,90,0.00,,---,0.23,VWS V14.01,2013-06-15 15:12:00,
2013-06-15 10:17:00,69.1,66.4,29.94,ENE,64,1.0,6.0,91,0.00,,---,0.23,VWS V14.01,2013-06-15 15:17:00,
2013-06-15 10:22:00,69.0,66.3,29.94,ESE,105,1.0,6.0,91,0.00,,---,0.23,VWS V14.01,2013-06-15 15:22:00,
2013-06-15 10:27:00,69.0,66.3,29.93,ENE,77,5.0,6.0,91,0.00,,---,0.23,VWS V14.01,2013-06-15 15:27:00,
2013-06-15 10:30:00,69.0,66.3,29.93,ESE,118,1.0,6.0,91,0.00,,---,0.23,VWS V14.01,2013-06-15 15:30:00,
2013-06-15 10:32:00,69.0,66.3,29.93,ESE,119,0.0,3.0,91,0.00,,---,0.23,VWS V14.01,2013-06-15 15:32:00,
2013-06-15 10:37:00,69.1,66.4,29.92,ESE,121,1.0,7.0,91,0.00,,---,0.23,VWS V14.01,2013-06-15 15:37:00,
2013-06-15 10:42:00,69.1,66.4,29.92,East,86,2.0,7.0,91,0.00,,---,0.23,VWS V14.01,2013-06-15 15:42:00,
2013-06-15 10:47:00,69.1,66.4,29.93,WSW,241,1.0,7.0,91,0.00,,---,0.23,VWS V14.01,2013-06-15 15:47:00,
2013-06-15 10:52:00,69.2,66.8,29.93,WSW,248,0.0,7.0,92,0.00,,---,0.23,VWS V14.01,2013-06-15 15:52:00,
2013-06-15 10:58:00,69.3,66.9,29.93,West,263,1.0,7.0,92,0.00,,---,0.23,VWS V14.01,2013-06-15 15:58:00,
2013-06-15 11:00:00,69.3,66.9,29.93,West,275,0.0,7.0,92,0.00,,---,0.23,VWS V14.01,2013-06-15 16:00:00,
2013-06-15 11:03:00,69.3,66.9,29.93,ESE,120,0.0,2.0,92,0.00,,---,0.23,VWS V14.01,2013-06-15 16:03:00,
2013-06-15 11:08:00,69.6,67.2,29.93,SSW,194,0.0,2.0,92,0.00,,---,0.23,VWS V14.01,2013-06-15 16:08:00,
2013-06-15 11:13:00,69.9,67.5,29.93,SSW,210,0.0,2.0,92,0.00,,---,0.23,VWS V14.01,2013-06-15 16:13:00,
2013-06-15 11:18:00,70.2,67.8,29.93,SSW,211,0.0,2.0,92,0.00,,---,0.23,VWS V14.01,2013-06-15 16:18:00,
2013-06-15 11:23:00,70.5,67.8,29.92,East,98,0.0,2.0,91,0.00,,---,0.23,VWS V14.01,2013-06-15 16:23:00,
2013-06-15 11:28:00,70.7,67.6,29.92,East,98,1.0,3.0,90,0.00,,---,0.23,VWS V14.01,2013-06-15 16:28:00,
2013-06-15 11:30:00,70.7,67.6,29.92,ENE,61,1.0,3.0,90,0.00,,---,0.23,VWS V14.01,2013-06-15 16:30:00,
2013-06-15 11:33:00,71.1,68.0,29.93,SSE,162,0.0,2.0,90,0.00,,---,0.23,VWS V14.01,2013-06-15 16:33:00,
2013-06-15 11:38:00,71.6,68.5,29.94,SW,217,1.0,2.0,90,0.00,,---,0.23,VWS V14.01,2013-06-15 16:38:00,
2013-06-15 11:43:00,72.2,68.4,29.94,ESE,102,1.0,2.0,88,0.00,,---,0.23,VWS V14.01,2013-06-15 16:43:00,
2013-06-15 11:48:00,72.2,68.1,29.94,ESE,103,0.0,3.0,87,0.00,,---,0.23,VWS V14.01,2013-06-15 16:48:00,
2013-06-15 11:53:00,72.7,68.9,29.94,East,81,0.0,3.0,88,0.00,,---,0.23,VWS V14.01,2013-06-15 16:53:00,
2013-06-15 11:58:00,73.6,69.2,29.94,SE,134,2.0,3.0,86,0.00,,---,0.23,VWS V14.01,2013-06-15 16:58:00,
2013-06-15 12:00:00,73.6,69.2,29.94,SSE,166,1.0,3.0,86,0.00,,---,0.23,VWS V14.01,2013-06-15 17:00:00,
2013-06-15 12:04:00,74.0,69.2,29.94,SSW,210,0.0,2.0,85,0.00,,---,0.23,VWS V14.01,2013-06-15 17:04:00,
2013-06-15 12:09:00,74.1,69.0,29.95,WSW,252,2.0,3.0,84,0.00,,---,0.23,VWS V14.01,2013-06-15 17:09:00,
2013-06-15 12:14:00,74.1,68.6,29.95,SE,136,0.0,5.0,83,0.00,,---,0.23,VWS V14.01,2013-06-15 17:14:00,
2013-06-15 12:19:00,74.3,68.8,29.95,SW,215,0.0,5.0,83,0.00,,---,0.23,VWS V14.01,2013-06-15 17:19:00,
2013-06-15 12:24:00,74.5,69.3,29.95,WSW,255,0.0,5.0,84,0.00,,---,0.23,VWS V14.01,2013-06-15 17:24:00,
2013-06-15 12:29:00,74.8,70.0,29.94,East,98,0.0,5.0,85,0.00,,---,0.23,VWS V14.01,2013-06-15 17:29:00,
2013-06-15 12:30:00,74.8,70.0,29.94,East,98,0.0,5.0,85,0.00,,---,0.23,VWS V14.01,2013-06-15 17:30:00,
2013-06-15 12:34:00,75.4,69.9,29.93,West,271,0.0,2.0,83,0.00,,---,0.23,VWS V14.01,2013-06-15 17:34:00,
2013-06-15 12:39:00,75.8,70.3,29.94,SW,215,2.0,3.0,83,0.00,,---,0.23,VWS V14.01,2013-06-15 17:39:00,
2013-06-15 12:44:00,76.0,70.1,29.94,SE,135,3.0,5.0,82,0.00,,---,0.23,VWS V14.01,2013-06-15 17:44:00,
2013-06-15 12:49:00,76.0,70.1,29.94,WSW,243,0.0,5.0,82,0.00,,---,0.23,VWS V14.01,2013-06-15 17:49:00,
2013-06-15 12:54:00,76.8,70.9,29.94,ESE,111,1.0,5.0,82,0.00,,---,0.23,VWS V14.01,2013-06-15 17:54:00,
2013-06-15 12:59:00,77.1,70.8,29.94,SSW,210,2.0,2.0,81,0.00,,---,0.23,VWS V14.01,2013-06-15 17:59:00,
2013-06-15 13:00:00,77.0,70.7,29.94,SSW,203,1.0,5.0,81,0.00,,---,0.23,VWS V14.01,2013-06-15 18:00:00,
2013-06-15 13:04:00,77.1,70.5,29.94,WNW,285,0.0,3.0,80,0.00,,---,0.23,VWS V14.01,2013-06-15 18:04:00,
2013-06-15 13:09:00,77.0,70.7,29.94,ESE,110,1.0,4.0,81,0.00,,---,0.23,VWS V14.01,2013-06-15 18:09:00,
2013-06-15 13:14:00,77.5,70.8,29.94,SSW,193,2.0,4.0,80,0.00,,---,0.23,VWS V14.01,2013-06-15 18:14:00,
2013-06-15 13:20:00,78.1,70.7,29.93,ESE,118,2.0,4.0,78,0.00,,---,0.23,VWS V14.01,2013-06-15 18:20:00,
2013-06-15 13:25:00,77.7,70.7,29.93,East,96,2.0,4.0,79,0.00,,---,0.23,VWS V14.01,2013-06-15 18:25:00,
2013-06-15 13:30:00,78.3,71.6,29.94,WSW,248,0.0,1.0,80,0.00,,---,0.23,VWS V14.01,2013-06-15 18:30:00,
2013-06-15 13:35:00,79.3,71.1,29.94,South,191,2.0,2.0,76,0.00,,---,0.23,VWS V14.01,2013-06-15 18:35:00,
2013-06-15 13:40:00,79.1,70.9,29.94,SSW,203,0.0,4.0,76,0.00,,---,0.23,VWS V14.01,2013-06-15 18:40:00,
2013-06-15 13:45:00,79.2,71.0,29.93,SSW,207,3.0,4.0,76,0.00,,---,0.23,VWS V14.01,2013-06-15 18:45:00,
2013-06-15 13:50:00,79.2,70.2,29.93,WSW,240,1.0,4.0,74,0.00,,---,0.23,VWS V14.01,2013-06-15 18:50:00,
2013-06-15 13:55:00,79.8,70.8,29.93,NW,315,0.0,4.0,74,0.00,,---,0.23,VWS V14.01,2013-06-15 18:55:00,
2013-06-15 14:00:00,79.9,70.9,29.92,SSE,167,0.0,1.0,74,0.00,,---,0.23,VWS V14.01,2013-06-15 19:00:00,
2013-06-15 14:05:00,80.1,70.3,29.92,West,272,0.0,1.0,72,0.00,,---,0.23,VWS V14.01,2013-06-15 19:05:00,
2013-06-15 14:11:00,80.8,70.9,29.91,WSW,252,0.0,1.0,72,0.00,,---,0.23,VWS V14.01,2013-06-15 19:11:00,
2013-06-15 14:16:00,81.1,70.0,29.91,North,1,2.0,2.0,69,0.00,,---,0.23,VWS V14.01,2013-06-15 19:16:00,
2013-06-15 14:21:00,80.5,69.8,29.93,West,276,2.0,2.0,70,0.00,,---,0.23,VWS V14.01,2013-06-15 19:21:00,
2013-06-15 14:26:00,80.0,69.8,29.93,SW,215,0.0,3.0,71,0.00,,---,0.23,VWS V14.01,2013-06-15 19:26:00,
2013-06-15 14:30:00,80.2,69.9,29.94,SW,231,0.0,3.0,71,0.00,,---,0.23,VWS V14.01,2013-06-15 19:30:00,
2013-06-15 14:31:00,80.5,70.2,29.94,SW,225,0.0,1.0,71,0.00,,---,0.23,VWS V14.01,2013-06-15 19:31:00,
2013-06-15 14:36:00,80.9,71.0,29.94,SE,145,2.0,2.0,72,0.00,,---,0.23,VWS V14.01,2013-06-15 19:36:00,
2013-06-15 14:41:00,80.8,70.9,29.93,SSE,148,1.0,2.0,72,0.00,,---,0.23,VWS V14.01,2013-06-15 19:41:00,
2013-06-15 14:46:00,80.5,71.5,29.93,SSW,200,1.0,4.0,74,0.00,,---,0.23,VWS V14.01,2013-06-15 19:46:00,
2013-06-15 14:52:00,79.8,70.0,29.93,SSE,148,0.0,4.0,72,0.00,,---,0.23,VWS V14.01,2013-06-15 19:52:00,
2013-06-15 14:57:00,80.1,70.7,29.92,SSE,148,0.0,4.0,73,0.00,,---,0.23,VWS V14.01,2013-06-15 19:57:00,
2013-06-15 15:00:00,80.2,69.9,29.92,SSE,167,0.0,4.0,71,0.00,,---,0.23,VWS V14.01,2013-06-15 20:00:00,
2013-06-15 15:02:00,80.2,69.9,29.92,SE,143,1.0,1.0,71,0.00,,---,0.23,VWS V14.01,2013-06-15 20:02:00,
2013-06-15 15:07:00,80.2,70.4,29.92,SE,143,0.0,1.0,72,0.00,,---,0.23,VWS V14.01,2013-06-15 20:07:00,
2013-06-15 15:12:00,80.0,69.8,29.92,South,173,0.0,1.0,71,0.00,,---,0.23,VWS V14.01,2013-06-15 20:12:00,
2013-06-15 15:17:00,80.3,71.3,29.92,South,173,0.0,1.0,74,0.00,,---,0.23,VWS V14.01,2013-06-15 20:17:00,
2013-06-15 15:22:00,80.3,70.9,29.92,SE,143,0.0,1.0,73,0.00,,---,0.23,VWS V14.01,2013-06-15 20:22:00,
2013-06-15 15:27:00,80.3,71.7,29.92,NNW,347,1.0,2.0,75,0.00,,---,0.23,VWS V14.01,2013-06-15 20:27:00,
2013-06-15 15:30:00,80.1,71.1,29.91,North,8,1.0,3.0,74,0.00,,---,0.23,VWS V14.01,2013-06-15 20:30:00,
2013-06-15 15:32:00,80.0,71.8,29.91,North,6,0.0,1.0,76,0.00,,---,0.23,VWS V14.01,2013-06-15 20:32:00,
2013-06-15 15:37:00,80.0,71.8,29.91,NW,313,0.0,2.0,76,0.00,,---,0.23,VWS V14.01,2013-06-15 20:37:00,
2013-06-15 15:42:00,80.2,71.6,29.91,NE,54,1.0,2.0,75,0.00,,---,0.23,VWS V14.01,2013-06-15 20:42:00,
2013-06-15 15:47:00,79.8,70.8,29.90,ENE,61,0.0,3.0,74,0.00,,---,0.23,VWS V14.01,2013-06-15 20:47:00,
2013-06-15 15:53:00,80.1,71.5,29.90,East,89,2.0,3.0,75,0.00,,---,0.23,VWS V14.01,2013-06-15 20:53:00,
2013-06-15 15:58:00,80.1,71.1,29.89,East,94,1.0,3.0,74,0.00,,---,0.23,VWS V14.01,2013-06-15 20:58:00,
2013-06-15 16:00:00,80.2,71.2,29.89,East,93,0.0,3.0,74,0.00,,---,0.23,VWS V14.01,2013-06-15 21:00:00,
2013-06-15 16:03:00,80.6,71.2,29.89,NNE,33,2.0,2.0,73,0.00,,---,0.23,VWS V14.01,2013-06-15 21:03:00,
2013-06-15 16:08:00,81.1,72.0,29.88,SE,126,1.0,2.0,74,0.00,,---,0.23,VWS V14.01,2013-06-15 21:08:00,
2013-06-15 16:13:00,80.9,71.4,29.87,SSE,148,2.0,4.0,73,0.00,,---,0.23,VWS V14.01,2013-06-15 21:13:00,
2013-06-15 16:18:00,81.0,71.5,29.86,ESE,107,4.0,5.0,73,0.00,,---,0.23,VWS V14.01,2013-06-15 21:18:00,
2013-06-15 16:23:00,80.8,71.3,29.85,SE,132,2.0,6.0,73,0.00,,---,0.23,VWS V14.01,2013-06-15 21:23:00,
2013-06-15 16:28:00,80.4,71.8,29.85,South,190,1.0,6.0,75,0.00,,---,0.23,VWS V14.01,2013-06-15 21:28:00,
2013-06-15 16:30:00,80.3,71.7,29.85,ESE,120,2.0,6.0,75,0.00,,---,0.23,VWS V14.01,2013-06-15 21:30:00,
2013-06-15 16:33:00,79.7,71.9,29.85,SE,141,3.0,6.0,77,0.00,,---,0.23,VWS V14.01,2013-06-15 21:33:00,
2013-06-15 16:38:00,79.2,71.4,29.86,ESE,122,4.0,6.0,77,0.00,,---,0.23,VWS V14.01,2013-06-15 21:38:00,
2013-06-15 16:43:00,78.7,71.3,29.86,South,183,1.0,7.0,78,0.00,,---,0.23,VWS V14.01,2013-06-15 21:43:00,
2013-06-15 16:48:00,78.3,70.9,29.87,SSW,210,2.0,7.0,78,0.00,,---,0.23,VWS V14.01,2013-06-15 21:48:00,
2013-06-15 16:54:00,78.1,71.1,29.88,WSW,252,0.0,7.0,79,0.00,,---,0.23,VWS V14.01,2013-06-15 21:54:00,
2013-06-15 16:59:00,78.0,71.3,29.89,West,259,2.0,7.0,80,0.00,,---,0.23,VWS V14.01,2013-06-15 21:59:00,
2013-06-15 17:00:00,78.0,71.0,29.89,West,262,1.0,7.0,79,0.00,,---,0.23,VWS V14.01,2013-06-15 22:00:00,
2013-06-15 17:04:00,77.9,71.2,29.89,SW,222,1.0,5.0,80,0.00,,---,0.23,VWS V14.01,2013-06-15 22:04:00,
2013-06-15 17:09:00,77.9,71.6,29.89,SW,224,1.0,5.0,81,0.00,,---,0.23,VWS V14.01,2013-06-15 22:09:00,
2013-06-15 17:14:00,78.0,71.7,29.89,SW,235,1.0,5.0,81,0.00,,---,0.23,VWS V14.01,2013-06-15 22:14:00,
2013-06-15 17:19:00,78.0,71.7,29.89,West,275,0.0,5.0,81,0.00,,---,0.23,VWS V14.01,2013-06-15 22:19:00,
2013-06-15 17:24:00,78.1,71.8,29.89,SE,141,1.0,5.0,81,0.00,,---,0.23,VWS V14.01,2013-06-15 22:24:00,
2013-06-15 17:29:00,78.2,71.5,29.89,WSW,250,2.0,7.0,80,0.00,,---,0.23,VWS V14.01,2013-06-15 22:29:00,
2013-06-15 17:30:00,78.2,71.5,29.89,WSW,250,2.0,7.0,80,0.00,,---,0.23,VWS V14.01,2013-06-15 22:30:00,
2013-06-15 17:34:00,78.5,71.4,29.89,SSW,204,1.0,7.0,79,0.00,,---,0.23,VWS V14.01,2013-06-15 22:34:00,
2013-06-15 17:39:00,78.8,71.0,29.89,SW,231,4.0,9.0,77,0.00,,---,0.23,VWS V14.01,2013-06-15 22:39:00,
2013-06-15 17:44:00,78.9,69.9,29.88,SW,224,6.0,9.0,74,0.00,,---,0.23,VWS V14.01,2013-06-15 22:44:00,
2013-06-15 17:49:00,79.0,69.6,29.87,WSW,255,2.0,9.0,73,0.00,,---,0.23,VWS V14.01,2013-06-15 22:49:00,
2013-06-15 17:54:00,79.1,69.3,29.86,SSW,212,4.0,9.0,72,0.00,,---,0.23,VWS V14.01,2013-06-15 22:54:00,
2013-06-15 17:59:00,79.1,69.3,29.85,South,186,2.0,4.0,72,0.00,,---,0.23,VWS V14.01,2013-06-15 22:59:00,
2013-06-15 18:00:00,79.1,69.3,29.86,SSW,194,3.0,9.0,72,0.00,,---,0.23,VWS V14.01,2013-06-15 23:00:00,
2013-06-15 18:04:00,79.1,68.9,29.85,South,190,1.0,5.0,71,0.00,,---,0.23,VWS V14.01,2013-06-15 23:04:00,
2013-06-15 18:09:00,79.2,68.6,29.85,SW,235,1.0,5.0,70,0.00,,---,0.23,VWS V14.01,2013-06-15 23:09:00,
2013-06-15 18:15:00,79.6,69.0,29.85,WSW,251,2.0,5.0,70,0.00,,---,0.23,VWS V14.01,2013-06-15 23:15:00,
2013-06-15 18:20:00,79.7,69.1,29.85,West,266,3.0,7.0,70,0.00,,---,0.23,VWS V14.01,2013-06-15 23:20:00,
2013-06-15 18:25:00,79.8,69.6,29.85,West,273,1.0,7.0,71,0.00,,---,0.23,VWS V14.01,2013-06-15 23:25:00,
2013-06-15 18:30:00,80.2,69.1,29.86,West,278,2.0,3.0,69,0.00,,---,0.23,VWS V14.01,2013-06-15 23:30:00,
2013-06-15 18:35:00,80.5,68.5,29.86,West,277,4.0,5.0,67,0.00,,---,0.23,VWS V14.01,2013-06-15 23:35:00,
2013-06-15 18:40:00,80.5,69.4,29.86,NW,304,1.0,5.0,69,0.00,,---,0.23,VWS V14.01,2013-06-15 23:40:00,
2013-06-15 18:45:00,80.9,68.5,29.86,West,276,2.0,5.0,66,0.00,,---,0.23,VWS V14.01,2013-06-15 23:45:00,
2013-06-15 18:50:00,81.2,69.2,29.86,West,270,0.0,5.0,67,0.00,,---,0.23,VWS V14.01,2013-06-15 23:50:00,
2013-06-15 18:55:00,81.7,69.2,29.86,WSW,255,0.0,5.0,66,0.00,,---,0.23,VWS V14.01,2013-06-15 23:55:00,
2013-06-15 19:00:00,81.6,68.7,29.87,SSW,206,1.0,1.0,65,0.00,,---,0.23,VWS V14.01,2013-06-16 00:00:00,
2013-06-15 19:05:00,81.3,68.9,29.87,SSW,203,0.0,1.0,66,0.00,,---,0.23,VWS V14.01,2013-06-16 00:05:00,
2013-06-15 19:10:00,81.0,69.0,29.87,SSW,212,0.0,1.0,67,0.00,,---,0.23,VWS V14.01,2013-06-16 00:10:00,
2013-06-15 19:15:00,80.4,68.4,29.87,SW,218,0.0,2.0,67,0.00,,---,0.23,VWS V14.01,2013-06-16 00:15:00,
2013-06-15 19:20:00,79.9,68.8,29.88,SW,218,0.0,2.0,69,0.00,,---,0.23,VWS V14.01,2013-06-16 00:20:00,
2013-06-15 19:25:00,79.5,68.9,29.88,SW,215,0.0,2.0,70,0.00,,---,0.23,VWS V14.01,2013-06-16 00:25:00,
2013-06-15 19:30:00,78.9,68.7,29.88,SW,215,0.0,1.0,71,0.00,,---,0.23,VWS V14.01,2013-06-16 00:30:00,
2013-06-15 19:36:00,78.5,68.3,29.88,SSW,193,0.0,2.0,71,0.00,,---,0.23,VWS V14.01,2013-06-16 00:36:00,
2013-06-15 19:41:00,78.2,68.4,29.89,SE,143,0.0,2.0,72,0.00,,---,0.23,VWS V14.01,2013-06-16 00:41:00,
2013-06-15 19:46:00,77.9,68.6,29.89,SSW,212,1.0,2.0,73,0.00,,---,0.23,VWS V14.01,2013-06-16 00:46:00,
2013-06-15 19:51:00,77.5,68.2,29.90,South,186,0.0,3.0,73,0.00,,---,0.23,VWS V14.01,2013-06-16 00:51:00,
2013-06-15 19:56:00,77.1,68.2,29.90,East,92,2.0,3.0,74,0.00,,---,0.23,VWS V14.01,2013-06-16 00:56:00,
2013-06-15 20:00:00,76.9,68.4,29.90,SW,233,1.0,4.0,75,0.00,,---,0.23,VWS V14.01,2013-06-16 01:00:00,
2013-06-15 20:01:00,76.8,68.3,29.91,SW,231,0.0,3.0,75,0.00,,---,0.23,VWS V14.01,2013-06-16 01:01:00,
2013-06-15 20:06:00,76.5,68.0,29.91,SE,141,9.0,10.0,75,0.00,,---,0.23,VWS V14.01,2013-06-16 01:06:00,
2013-06-15 20:11:00,76.3,67.8,29.92,SW,219,4.0,10.0,75,0.00,,---,0.23,VWS V14.01,2013-06-16 01:11:00,
2013-06-15 20:16:00,76.1,68.0,29.92,SW,235,11.0,15.0,76,0.00,,---,0.23,VWS V14.01,2013-06-16 01:16:00,
2013-06-15 20:21:00,74.7,67.0,29.92,SW,230,10.0,17.0,77,0.00,,---,0.23,VWS V14.01,2013-06-16 01:21:00,
2013-06-15 20:26:00,73.4,66.5,29.93,WSW,246,3.0,17.0,79,0.00,,---,0.23,VWS V14.01,2013-06-16 01:26:00,
2013-06-15 20:30:00,72.9,66.0,29.93,SW,221,8.0,19.0,79,0.00,,---,0.23,VWS V14.01,2013-06-16 01:30:00,
2013-06-15 20:31:00,72.6,66.1,29.93,SSW,194,3.0,11.0,80,0.00,,---,0.23,VWS V14.01,2013-06-16 01:31:00,
2013-06-15 20:36:00,72.0,65.9,29.94,WNW,293,8.0,11.0,81,0.00,,---,0.23,VWS V14.01,2013-06-16 01:36:00,
2013-06-15 20:41:00,71.6,65.5,29.94,SSW,194,1.0,16.0,81,0.00,,---,0.23,VWS V14.01,2013-06-16 01:41:00,
2013-06-15 20:46:00,71.3,65.5,29.94,South,169,2.0,16.0,82,0.00,,---,0.23,VWS V14.01,2013-06-16 01:46:00,
2013-06-15 20:51:00,71.0,65.6,29.94,ESE,120,4.0,16.0,83,0.00,,---,0.23,VWS V14.01,2013-06-16 01:51:00,
2013-06-15 20:57:00,70.8,65.4,29.94,South,180,0.0,16.0,83,0.00,,---,0.23,VWS V14.01,2013-06-16 01:57:00,
2013-06-15 21:00:00,70.7,65.6,29.94,SSW,208,1.0,16.0,84,0.00,,---,0.23,VWS V14.01,2013-06-16 02:00:00,
2013-06-15 21:02:00,70.6,65.5,29.94,SW,228,3.0,4.0,84,0.00,,---,0.23,VWS V14.01,2013-06-16 02:02:00,
2013-06-15 21:07:00,70.4,65.3,29.94,WNW,290,1.0,7.0,84,0.00,,---,0.23,VWS V14.01,2013-06-16 02:07:00,
2013-06-15 21:12:00,70.3,65.6,29.94,SSE,160,2.0,7.0,85,0.00,,---,0.23,VWS V14.01,2013-06-16 02:12:00,
2013-06-15 21:17:00,70.1,65.4,29.94,SSW,205,3.0,7.0,85,0.00,,---,0.23,VWS V14.01,2013-06-16 02:17:00,
2013-06-15 21:22:00,69.9,65.2,29.94,SSE,166,0.0,7.0,85,0.00,,---,0.23,VWS V14.01,2013-06-16 02:22:00,
2013-06-15 21:27:00,69.7,65.3,29.93,WSW,255,1.0,7.0,86,0.00,,---,0.23,VWS V14.01,2013-06-16 02:27:00,
2013-06-15 21:30:00,69.7,65.3,29.93,SSW,211,1.0,7.0,86,0.00,,---,0.23,VWS V14.01,2013-06-16 02:30:00,
2013-06-15 21:32:00,69.6,65.2,29.93,East,98,1.0,7.0,86,0.00,,---,0.23,VWS V14.01,2013-06-16 02:32:00,
2013-06-15 21:37:00,69.5,65.5,29.93,SE,141,2.0,7.0,87,0.00,,---,0.23,VWS V14.01,2013-06-16 02:37:00,
2013-06-15 21:42:00,69.5,65.5,29.95,West,262,6.0,7.0,87,0.00,,---,0.23,VWS V14.01,2013-06-16 02:42:00,
2013-06-15 21:47:00,69.5,65.5,29.95,SW,218,3.0,7.0,87,0.00,,---,0.23,VWS V14.01,2013-06-16 02:47:00,
2013-06-15 21:53:00,69.4,65.7,29.95,SSE,148,2.0,7.0,88,0.00,,---,0.23,VWS V14.01,2013-06-16 02:53:00,
2013-06-15 21:58:00,69.3,65.9,29.94,SW,221,4.0,7.0,89,0.00,,---,0.23,VWS V14.01,2013-06-16 02:58:00,
2013-06-15 22:00:00,69.2,65.8,29.94,SE,138,4.0,7.0,89,0.00,,---,0.23,VWS V14.01,2013-06-16 03:00:00,
2013-06-15 22:03:00,69.1,65.7,29.93,SW,235,8.0,10.0,89,0.00,,---,0.23,VWS V14.01,2013-06-16 03:03:00,
2013-06-15 22:08:00,69.0,65.9,29.93,SW,224,2.0,10.0,90,0.00,,---,0.23,VWS V14.01,2013-06-16 03:08:00,
2013-06-15 22:13:00,68.8,65.8,29.93,SE,124,5.0,10.0,90,0.00,,---,0.23,VWS V14.01,2013-06-16 03:13:00,
2013-06-15 22:18:00,68.6,65.6,29.93,WSW,252,4.0,10.0,90,0.00,,---,0.23,VWS V14.01,2013-06-16 03:18:00,
2013-06-15 22:24:00,68.5,65.5,29.94,West,261,2.0,10.0,90,0.00,,---,0.23,VWS V14.01,2013-06-16 03:24:00,
2013-06-15 22:29:00,68.4,65.7,29.94,SSW,210,4.0,10.0,91,0.00,,---,0.23,VWS V14.01,2013-06-16 03:29:00,
2013-06-15 22:30:00,68.4,65.7,29.94,SSE,163,3.0,10.0,91,0.00,,---,0.23,VWS V14.01,2013-06-16 03:30:00,
2013-06-15 22:34:00,68.2,65.5,29.94,SW,222,0.0,3.0,91,0.00,,---,0.23,VWS V14.01,2013-06-16 03:34:00,
2013-06-15 22:39:00,68.0,65.6,29.94,SE,130,0.0,8.0,92,0.00,,---,0.23,VWS V14.01,2013-06-16 03:39:00,
2013-06-15 22:44:00,67.8,65.4,29.94,SE,129,4.0,8.0,92,0.00,,---,0.23,VWS V14.01,2013-06-16 03:44:00,
2013-06-15 22:49:00,67.7,65.3,29.94,SE,134,2.0,8.0,92,0.00,,---,0.23,VWS V14.01,2013-06-16 03:49:00,
2013-06-15 22:54:00,67.6,65.2,29.94,SSE,155,3.0,8.0,92,0.00,,---,0.23,VWS V14.01,2013-06-16 03:54:00,
2013-06-15 22:59:00,67.5,65.1,29.94,SSW,212,4.0,8.0,92,0.00,,---,0.23,VWS V14.01,2013-06-16 03:59:00,
2013-06-15 23:00:00,67.5,65.1,29.94,SSW,212,4.0,8.0,92,0.00,,---,0.23,VWS V14.01,2013-06-16 04:00:00,
2013-06-15 23:01:00,67.4,65.0,29.94,SSE,148,3.0,6.0,92,0.00,,---,0.23,VWS V14.01,2013-06-16 04:01:00,
2013-06-15 23:02:00,67.4,65.0,29.94,SSW,197,1.0,6.0,92,0.00,,---,0.23,VWS V14.01,2013-06-16 04:02:00,
2013-06-15 23:07:00,67.3,64.9,29.94,South,190,2.0,9.0,92,0.00,,---,0.23,VWS V14.01,2013-06-16 04:07:00,
2013-06-15 23:12:00,67.3,64.9,29.95,SE,126,0.0,9.0,92,0.00,,---,0.23,VWS V14.01,2013-06-16 04:12:00,
2013-06-15 23:17:00,67.3,64.9,29.94,SW,225,1.0,9.0,92,0.00,,---,0.23,VWS V14.01,2013-06-16 04:17:00,
2013-06-15 23:22:00,67.2,65.1,29.94,WSW,237,1.0,9.0,93,0.00,,---,0.23,VWS V14.01,2013-06-16 04:22:00,
2013-06-15 23:27:00,67.2,65.1,29.94,SW,215,4.0,9.0,93,0.00,,---,0.23,VWS V14.01,2013-06-16 04:27:00,
2013-06-15 23:30:00,67.2,65.1,29.94,SSE,167,0.0,9.0,93,0.00,,---,0.23,VWS V14.01,2013-06-16 04:30:00,
2013-06-15 23:32:00,67.1,65.0,29.94,SW,229,3.0,5.0,93,0.00,,---,0.23,VWS V14.01,2013-06-16 04:32:00,
2013-06-15 23:37:00,67.0,64.9,29.93,SSW,211,2.0,6.0,93,0.00,,---,0.23,VWS V14.01,2013-06-16 04:37:00,
2013-06-15 23:42:00,66.9,64.8,29.93,WNW,287,2.0,7.0,93,0.00,,---,0.23,VWS V14.01,2013-06-16 04:42:00,
2013-06-15 23:47:00,66.8,64.7,29.93,SSW,207,1.0,7.0,93,0.00,,---,0.23,VWS V14.01,2013-06-16 04:47:00,
2013-06-15 23:52:00,66.8,64.7,29.93,SW,224,0.0,7.0,93,0.00,,---,0.23,VWS V14.01,2013-06-16 04:52:00,
2013-06-15 23:57:00,66.8,64.7,29.93,SSW,195,1.0,7.0,93,0.00,,---,0.23,VWS V14.01,2013-06-16 04:57:00,